Regional Weather Roundup
Issued by NWS Mt. Holly, NJ

Home | Current Version | Previous Version | Text Only | Print | Product List | Glossary On
Versions: 1 2 3 4 5 6 7 8 9 10 11 12 13 14 15 16 17 18 19 20 21 22 23 24 25 26 27 28 29 30 31 32 33 34 35 36 37 38 39 40 41 42 43 44 45 46 47 48 49 50
000
ASUS41 KPHI 250511
RWRPHI

REGIONAL WEATHER ROUNDUP
NATIONAL WEATHER SERVICE MOUNT HOLLY NJ
1200 AM EST SAT FEB 25 2017

NOTE:  "FAIR" INDICATES FEW OR NO CLOUDS BELOW 12,000 FEET WITH NO
SIGNIFICANT WEATHER AND/OR OBSTRUCTIONS TO VISIBILITY.

 * = STATION DOES NOT REPORT PRECIPITATION (E.G. RAIN, SNOW, ETC.)
        OR FOG.

NJZ015>026-250600-
SOUTHERN NEW JERSEY

CITY           SKY/WX    TMP DP  RH WIND       PRES   REMARKS
POMONA         CLEAR     56  53  90 S7        29.85F
WILDWOOD*      CLEAR     55  54  96 S10       29.85F
MILLVILLE      CLEAR     55  54  96 CALM      29.84F
WRIGHTSTOWN    CLEAR     54  53  96 S5        29.82F
MOUNT HOLLY    CLEAR     56  55  97 S5        29.83F
TRENTON        PTCLDY    57  56  96 S6        29.83F

$$
NJZ001>014-250600-
NORTHERN NEW JERSEY

CITY           SKY/WX    TMP DP  RH WIND       PRES   REMARKS
SUSSEX         CLOUDY    61  57  87 SW6       29.82F
ANDOVER*         N/A     61  56  83 S5        29.81F
MORRISTOWN     CLOUDY    61  57  88 S5        29.84F
NEWARK         MOCLDY    59  56  89 S5        29.85F
TETERBORO      CLOUDY    60  56  86 S7        29.84F
CALDWELL       CLOUDY    62  57  83 SW7       29.84F
SOMERVILLE     CLOUDY    60  56  86 SE5       29.82F
ALLAIRE*       FOG       52  52 100 SE5       29.86F VSB 1
TOMS RIVER*    CLEAR     55  54  96 S6        29.86F

$$
PAZ043-044-047-054-055-060>062-066>071-250600-
EASTERN PENNSYLVANIA

CITY           SKY/WX    TMP DP  RH WIND       PRES   REMARKS
PHILADELPHIA   MOCLDY    58  55  90 S7        29.83F
NORTH PHILA    MOCLDY    62  57  83 VRB5      29.84F
BLUE BELL*     CLOUDY    59  55  88 CALM      29.82F
DOYLESTOWN     CLOUDY    61  58  90 VRB6      29.82F
QUAKERTOWN*    CLOUDY    61  59  94 S6        29.83S
PERKASIE*      CLOUDY    59  59 100 S5        29.84S
POTTSTOWN      CLOUDY    61  57  87 S6        29.83F
LANCASTER      CLOUDY    63  60  90 S15G22    29.78F
COATESVILLE    CLOUDY    59  57  94 S6        29.83S
READING        CLOUDY    64  59  83 S9        29.79S
ALLENTOWN      CLOUDY    64  56  75 S12       29.81F
MOUNT POCONO   CLOUDY    55  55 100 S13G20    29.82S
HAZLETON       CLOUDY    59  54  82 S7G18     29.82F
LEHIGHTON      CLOUDY    63  55  77 S5        29.81S
WILKES BARRE   CLOUDY    62  55  77 S12G25    29.75F

$$
DEZALL-MDZ008-012-015-019-020-250600-
DELAWARE AND EASTERN MARYLAND

CITY           SKY/WX    TMP DP  RH WIND       PRES   REMARKS
WILMINGTON     MOCLDY    53  53 100 S6        29.83S
DOVER          CLEAR     57  57 100 SE7       29.82F
GEORGETOWN     CLEAR     58  55  90 S7        29.84F
EASTON         PTCLDY    63  56  80 SW12G18   29.85S
ABERDEEN       PTCLDY    54  53  97 CALM      29.81F
PATUXENT       PTCLDY    60  57  89 S12G17    29.81F
OCEAN CITY     CLEAR     56  53  90 S5        29.85F
WALLOPS ISLAND CLEAR     55  54  96 S12       29.85F
CAMBRIDGE        N/A     59  55  88 S6        29.83S
SALISBURY      CLEAR     59  57  93 S7        29.83F

$$
PAZ001-021-NYZ056-072-MDZ011-DCZ001-250600-
OTHER NEARBY LOCATIONS

CITY           SKY/WX    TMP DP  RH WIND       PRES   REMARKS
HARRISBURG     CLOUDY    60  57  89 S8        29.75F
STATE COLLEGE  CLEAR     63  50  63 S10G17    29.70F
WILLIAMSPORT   CLOUDY    64  53  67 VRB7      29.72S
BINGHAMTON     CLOUDY    58  49  72 S10G21    29.72S
NEW YORK CITY  MOCLDY    60  56  86 VRB3      29.87F
BALTIMORE      MOCLDY    57  57 100 SE3       29.79S
WASHINGTON DC  MOCLDY    62  59  90 S12       29.79S

$$



USA.gov is the U.S. government's official web portal to all federal, state and local government web resources and services.